Location: Camp Creek
(33.9000°N, 111.8167°W)
Time: 01:33:28
(UTC-07:00)

DELTA 2 R/B (1) - Visible Passes

Search period start: 02 September 2015 00:00
Search period end: 12 September 2015 00:00
Orbit: 791 x 803 km, 39.6° (Epoch: 01 September)

Date Brightness Start Highest point End Pass type
(mag) Time Alt. Az. Time Alt. Az. Time Alt. Az.
02 Sep 4.3 20:40:55 10° WNW 20:46:16 47° N 20:48:23 32° NE visible
02 Sep 5.9 22:27:37 10° WNW 22:29:09 19° WNW 22:29:09 19° WNW visible
03 Sep 4.3 20:10:08 10° WNW 20:15:30 46° N 20:19:05 20° ENE visible
03 Sep 5.1 21:56:52 10° WNW 21:59:51 32° WNW 21:59:51 32° WNW visible
04 Sep 4.4 19:39:21 10° WNW 19:44:43 46° N 19:49:47 12° ENE visible
04 Sep 4.2 21:26:08 10° WNW 21:30:32 52° NW 21:30:32 52° NW visible
05 Sep 4.4 19:08:34 10° WNW 19:13:56 47° N 19:19:19 10° ENE visible
05 Sep 3.7 20:55:23 10° WNW 21:00:56 62° NNE 21:01:14 61° NNE visible
05 Sep 6.4 22:41:59 10° WNW 22:42:00 10° WNW 22:42:00 10° WNW visible
06 Sep 3.8 20:24:39 10° WNW 20:30:09 60° NNE 20:31:58 40° ENE visible
06 Sep 5.9 22:11:13 10° WNW 22:12:43 19° WNW 22:12:43 19° WNW visible
07 Sep 3.9 19:53:54 10° WNW 19:59:24 58° NNE 20:02:42 24° E visible
07 Sep 5.1 21:40:27 10° WNW 21:43:28 32° W 21:43:28 32° W visible
08 Sep 4.0 19:23:09 10° WNW 19:28:38 56° NNE 19:33:28 13° E visible
08 Sep 4.1 21:09:41 10° WNW 21:14:14 54° WSW 21:14:14 54° WSW visible
09 Sep 3.6 20:38:56 10° WNW 20:44:28 68° SSW 20:45:04 63° S visible
10 Sep 3.6 20:08:11 10° WNW 20:13:44 73° SSW 20:15:57 37° SE visible
10 Sep 6.1 21:55:48 10° W 21:56:43 13° WSW 21:56:43 13° WSW visible
11 Sep 3.6 19:37:26 10° WNW 19:43:00 78° SSW 19:46:53 20° ESE visible
11 Sep 5.6 21:24:52 10° W 21:27:40 20° WSW 21:27:40 20° WSW visible
